DLH4LF EDDM-LIMC

Flight info

Callsign DLH4LF
Flight time 0h 52m
Altitude 24000
Route MERSI5S MERSI Y100 ATMAX Z999 KPT/N0367F230 Z999 BEMKI L607 XEBIX Y740 NATAG DCT LORLO DCT ATPED DCT LUSIL DCT EVRIP
Aircraft A321/M-SDE2E3FGIJ1LORWXYZ/HB1

Departure

Time 2026-05-07 15:02
Airport Munich Airport (EDDM)

Arrival

Time 2026-05-07 15:55
Airport Milan Malpensa International Airport (LIMC)
Time Latitude Longitude Altitude Speed Heading
2026-05-07 14:19 48.35693 11.79689 1486 ft 0 kts 83°
2026-05-07 14:50 48.35690 11.79658 1482 ft 4 kts 83°
2026-05-07 14:50 48.35687 11.79619 1475 ft 2 kts 83°
2026-05-07 14:50 48.35686 11.79586 1476 ft 4 kts 99°
2026-05-07 14:50 48.35695 11.79553 1471 ft 4 kts 149°
2026-05-07 14:51 48.35718 11.79544 1473 ft 4 kts 173°
2026-05-07 14:51 48.35728 11.79542 1474 ft 0 kts 173°
2026-05-07 14:54 48.35727 11.79542 1485 ft 1 kts 173°
2026-05-07 14:55 48.35714 11.79545 1477 ft 3 kts 173°
2026-05-07 14:55 48.35682 11.79551 1478 ft 6 kts 173°
2026-05-07 14:55 48.35634 11.79559 1478 ft 8 kts 173°
2026-05-07 14:55 48.35571 11.79571 1476 ft 9 kts 173°
2026-05-07 14:56 48.35529 11.79578 1485 ft 6 kts 173°
2026-05-07 14:56 48.35475 11.79587 1478 ft 9 kts 173°
2026-05-07 14:56 48.35399 11.79601 1480 ft 12 kts 173°
2026-05-07 14:56 48.35304 11.79617 1476 ft 14 kts 173°
2026-05-07 14:57 48.35202 11.79635 1475 ft 16 kts 173°
2026-05-07 14:57 48.35100 11.79653 1485 ft 15 kts 173°
2026-05-07 14:57 48.34986 11.79672 1474 ft 18 kts 173°
2026-05-07 14:57 48.34860 11.79694 1482 ft 19 kts 173°
2026-05-07 14:58 48.34805 11.79792 1486 ft 14 kts 85°
2026-05-07 14:58 48.34818 11.79920 1486 ft 11 kts 82°
2026-05-07 14:58 48.34829 11.80047 1480 ft 13 kts 83°
2026-05-07 14:58 48.34841 11.80196 1474 ft 15 kts 83°
2026-05-07 14:59 48.34812 11.80342 1481 ft 13 kts 149°
2026-05-07 14:59 48.34737 11.80397 1476 ft 13 kts 167°
2026-05-07 14:59 48.34655 11.80414 1479 ft 12 kts 174°
2026-05-07 14:59 48.34618 11.80419 1486 ft 0 kts 174°
2026-05-07 15:00 48.34613 11.80420 1486 ft 2 kts 174°
2026-05-07 15:01 48.34582 11.80419 1478 ft 7 kts 186°
2026-05-07 15:01 48.34523 11.80395 1484 ft 11 kts 203°
2026-05-07 15:01 48.34470 11.80306 1481 ft 13 kts 258°
2026-05-07 15:01 48.34457 11.80161 1486 ft 17 kts 264°
2026-05-07 15:02 48.34418 11.79648 1486 ft 90 kts 264°
2026-05-07 15:02 48.34320 11.78328 1482 ft 157 kts 263°
2026-05-07 15:02 48.34174 11.76620 2069 ft 163 kts 265°
2026-05-07 15:02 48.34040 11.74969 3059 ft 157 kts 266°
2026-05-07 15:03 48.33926 11.73266 3733 ft 170 kts 266°
2026-05-07 15:03 48.33793 11.71408 4318 ft 187 kts 264°
2026-05-07 15:03 48.33644 11.69390 4916 ft 202 kts 265°
2026-05-07 15:03 48.33476 11.67184 5448 ft 224 kts 264°
2026-05-07 15:04 48.33285 11.64715 6026 ft 247 kts 264°
2026-05-07 15:04 48.33092 11.62096 6599 ft 258 kts 264°
2026-05-07 15:04 48.32898 11.59395 7397 ft 262 kts 264°
2026-05-07 15:04 48.32703 11.56663 8240 ft 265 kts 264°
2026-05-07 15:05 48.32507 11.53934 9085 ft 268 kts 264°
2026-05-07 15:05 48.32305 11.51140 9947 ft 270 kts 263°
2026-05-07 15:05 48.32166 11.49240 10461 ft 272 kts 263°
2026-05-07 15:05 48.31957 11.46400 11245 ft 275 kts 263°
2026-05-07 15:06 48.31671 11.42597 12270 ft 278 kts 263°
2026-05-07 15:06 48.31452 11.39695 13049 ft 281 kts 263°
2026-05-07 15:06 48.31230 11.36760 13823 ft 284 kts 263°
2026-05-07 15:06 48.31078 11.34757 14284 ft 286 kts 262°
2026-05-07 15:07 48.30585 11.31854 14930 ft 290 kts 247°
2026-05-07 15:07 48.29507 11.29265 15545 ft 299 kts 231°
2026-05-07 15:07 48.27857 11.27179 15682 ft 324 kts 212°
2026-05-07 15:07 48.25734 11.25750 15912 ft 343 kts 205°
2026-05-07 15:08 48.23510 11.24357 16431 ft 349 kts 205°
2026-05-07 15:08 48.21255 11.22932 17034 ft 354 kts 206°
2026-05-07 15:08 48.19008 11.21502 17640 ft 358 kts 206°
2026-05-07 15:08 48.16673 11.20013 18252 ft 362 kts 206°
2026-05-07 15:09 48.14341 11.18522 18774 ft 366 kts 206°
2026-05-07 15:09 48.12078 11.16782 19302 ft 366 kts 214°
2026-05-07 15:09 48.09891 11.14791 19844 ft 369 kts 214°
2026-05-07 15:09 48.07685 11.12792 20375 ft 372 kts 213°
2026-05-07 15:10 48.05481 11.10803 20841 ft 378 kts 213°
2026-05-07 15:10 48.03220 11.08768 21359 ft 381 kts 213°
2026-05-07 15:10 48.01050 11.06503 21868 ft 381 kts 223°
2026-05-07 15:10 47.99221 11.03657 22374 ft 381 kts 234°
2026-05-07 15:11 47.97808 11.00320 22874 ft 381 kts 245°
2026-05-07 15:11 47.96858 10.96625 23378 ft 382 kts 256°
2026-05-07 15:11 47.96184 10.92783 23821 ft 384 kts 256°
2026-05-07 15:11 47.95495 10.88914 23989 ft 386 kts 256°
2026-05-07 15:12 47.94806 10.85125 24026 ft 371 kts 256°
2026-05-07 15:12 47.94133 10.81447 24026 ft 365 kts 256°
2026-05-07 15:12 47.93466 10.77799 24030 ft 364 kts 255°
2026-05-07 15:12 47.92515 10.74242 24085 ft 377 kts 244°
2026-05-07 15:13 47.91109 10.70861 24207 ft 390 kts 236°
2026-05-07 15:13 47.89532 10.67496 24367 ft 401 kts 237°
2026-05-07 15:13 47.87946 10.64066 24761 ft 403 kts 237°
2026-05-07 15:13 47.86362 10.60613 25282 ft 403 kts 237°
2026-05-07 15:14 47.84787 10.57167 25836 ft 402 kts 237°
2026-05-07 15:14 47.83217 10.53737 26399 ft 400 kts 237°
2026-05-07 15:14 47.81648 10.50319 26947 ft 400 kts 237°
2026-05-07 15:14 47.80081 10.46910 27499 ft 398 kts 237°
2026-05-07 15:15 47.78516 10.43513 28056 ft 397 kts 236°
2026-05-07 15:15 47.76764 10.40335 28598 ft 398 kts 227°
2026-05-07 15:15 47.74664 10.37645 29111 ft 399 kts 217°
2026-05-07 15:15 47.72275 10.35537 29701 ft 400 kts 207°
2026-05-07 15:16 47.69675 10.34023 29990 ft 403 kts 198°
2026-05-07 15:16 47.66933 10.33147 30031 ft 404 kts 191°
2026-05-07 15:16 47.61379 10.31877 30029 ft 404 kts 188°
2026-05-07 15:17 47.58563 10.31794 30032 ft 407 kts 177°
2026-05-07 15:17 47.55771 10.32516 30032 ft 409 kts 165°
2026-05-07 15:17 47.53116 10.34033 30029 ft 411 kts 154°
2026-05-07 15:17 47.50696 10.36279 30033 ft 412 kts 144°
2026-05-07 15:18 47.46096 10.41332 30029 ft 412 kts 145°
2026-05-07 15:18 47.41369 10.46073 30031 ft 410 kts 156°
2026-05-07 15:19 47.35996 10.48556 30028 ft 403 kts 175°
2026-05-07 15:19 47.30459 10.49348 30009 ft 402 kts 177°
2026-05-07 15:20 47.24887 10.50134 30014 ft 403 kts 177°
2026-05-07 15:20 47.19272 10.50937 30004 ft 403 kts 177°
2026-05-07 15:21 47.13693 10.51738 29996 ft 403 kts 177°
2026-05-07 15:21 47.08110 10.52529 29990 ft 403 kts 178°
2026-05-07 15:22 47.02608 10.54261 29984 ft 408 kts 166°
2026-05-07 15:22 46.97189 10.56728 29974 ft 408 kts 166°
2026-05-07 15:23 46.91795 10.59167 29977 ft 408 kts 166°
2026-05-07 15:23 46.86357 10.61626 29971 ft 409 kts 166°
2026-05-07 15:24 46.80916 10.64078 29975 ft 409 kts 167°
2026-05-07 15:24 46.75412 10.66402 29992 ft 407 kts 173°
2026-05-07 15:25 46.69886 10.66539 29994 ft 397 kts 193°
2026-05-07 15:25 46.64602 10.64440 29980 ft 393 kts 201°
2026-05-07 15:26 46.59371 10.62141 29993 ft 393 kts 201°
2026-05-07 15:26 46.54146 10.59860 29991 ft 392 kts 201°
2026-05-07 15:27 46.48921 10.57576 29990 ft 392 kts 201°
2026-05-07 15:27 46.43709 10.55299 29981 ft 391 kts 202°
2026-05-07 15:28 46.38492 10.53026 30006 ft 392 kts 202°
2026-05-07 15:28 46.33273 10.50751 30013 ft 392 kts 202°
2026-05-07 15:29 46.28051 10.48493 30010 ft 391 kts 202°
2026-05-07 15:29 46.22839 10.46245 30012 ft 391 kts 202°
2026-05-07 15:30 46.17823 10.43449 30019 ft 382 kts 216°
2026-05-07 15:30 46.15719 10.41181 30016 ft 375 kts 227°
2026-05-07 15:30 46.13992 10.38409 30011 ft 370 kts 238°
2026-05-07 15:31 46.11520 10.31970 30007 ft 366 kts 246°
2026-05-07 15:31 46.10367 10.28708 29734 ft 363 kts 246°
2026-05-07 15:31 46.09235 10.25527 29349 ft 351 kts 245°
2026-05-07 15:32 46.08130 10.22433 28972 ft 344 kts 246°
2026-05-07 15:32 46.07047 10.19399 28615 ft 338 kts 245°
2026-05-07 15:32 46.05983 10.16413 28263 ft 333 kts 246°
2026-05-07 15:32 46.04936 10.13473 27915 ft 327 kts 245°
2026-05-07 15:33 46.03919 10.10609 27533 ft 324 kts 246°
2026-05-07 15:33 46.02931 10.07715 27168 ft 321 kts 247°
2026-05-07 15:33 46.01966 10.04812 26812 ft 321 kts 247°
2026-05-07 15:33 46.01010 10.01922 26453 ft 320 kts 247°
2026-05-07 15:34 46.00052 9.99035 26091 ft 319 kts 246°
2026-05-07 15:34 45.99091 9.96156 25723 ft 319 kts 246°
2026-05-07 15:34 45.98130 9.93285 25345 ft 318 kts 246°
2026-05-07 15:34 45.97165 9.90417 24965 ft 318 kts 246°
2026-05-07 15:35 45.96198 9.87556 24571 ft 318 kts 246°
2026-05-07 15:35 45.95230 9.84699 24185 ft 318 kts 245°
2026-05-07 15:35 45.94264 9.81848 23794 ft 317 kts 245°
2026-05-07 15:35 45.93298 9.79003 23373 ft 316 kts 245°
2026-05-07 15:36 45.92337 9.76175 22942 ft 314 kts 245°
2026-05-07 15:36 45.91380 9.73369 22538 ft 312 kts 245°
2026-05-07 15:36 45.90428 9.70577 22132 ft 310 kts 245°
2026-05-07 15:36 45.89483 9.67803 21734 ft 309 kts 245°
2026-05-07 15:37 45.88541 9.65042 21321 ft 307 kts 245°
2026-05-07 15:37 45.87605 9.62300 20928 ft 305 kts 245°
2026-05-07 15:37 45.86672 9.59570 20538 ft 304 kts 245°
2026-05-07 15:37 45.85746 9.56852 20144 ft 302 kts 245°
2026-05-07 15:38 45.84824 9.54146 19747 ft 301 kts 245°
2026-05-07 15:38 45.83899 9.51447 19355 ft 302 kts 245°
2026-05-07 15:38 45.82972 9.48747 18958 ft 301 kts 245°
2026-05-07 15:38 45.82052 9.46068 18562 ft 299 kts 245°
2026-05-07 15:39 45.81133 9.43398 18158 ft 298 kts 245°
2026-05-07 15:39 45.80217 9.40739 17746 ft 301 kts 245°
2026-05-07 15:39 45.79275 9.38013 17343 ft 307 kts 245°
2026-05-07 15:39 45.78327 9.35274 16942 ft 307 kts 245°
2026-05-07 15:40 45.77378 9.32543 16532 ft 305 kts 245°
2026-05-07 15:40 45.76436 9.29829 16144 ft 304 kts 245°
2026-05-07 15:40 45.75502 9.27131 15747 ft 302 kts 245°
2026-05-07 15:40 45.74572 9.24444 15356 ft 300 kts 245°
2026-05-07 15:41 45.73650 9.21775 14956 ft 298 kts 245°
2026-05-07 15:41 45.72731 9.19115 14579 ft 297 kts 245°
2026-05-07 15:41 45.71818 9.16476 14192 ft 296 kts 245°
2026-05-07 15:41 45.70904 9.13847 13817 ft 294 kts 245°
2026-05-07 15:42 45.69995 9.11233 13403 ft 293 kts 245°
2026-05-07 15:42 45.69090 9.08631 13025 ft 292 kts 245°
2026-05-07 15:42 45.68187 9.06040 12651 ft 291 kts 244°
2026-05-07 15:42 45.67283 9.03457 12273 ft 290 kts 244°
2026-05-07 15:43 45.66382 9.00883 11901 ft 289 kts 244°
2026-05-07 15:43 45.65488 8.98318 11533 ft 288 kts 245°
2026-05-07 15:43 45.64591 8.95749 11132 ft 287 kts 244°
2026-05-07 15:43 45.63700 8.93213 10874 ft 284 kts 244°
2026-05-07 15:44 45.62706 8.90799 10790 ft 277 kts 230°
2026-05-07 15:44 45.61223 8.89139 10670 ft 268 kts 207°
2026-05-07 15:44 45.59479 8.88499 10563 ft 255 kts 184°
2026-05-07 15:44 45.57746 8.88767 10292 ft 249 kts 171°
2026-05-07 15:45 45.56049 8.89233 9921 ft 247 kts 170°
2026-05-07 15:45 45.54366 8.89697 9518 ft 246 kts 170°
2026-05-07 15:45 45.52692 8.90155 9125 ft 244 kts 170°
2026-05-07 15:45 45.51059 8.90600 8752 ft 242 kts 170°
2026-05-07 15:46 45.47777 8.91497 7984 ft 238 kts 169°
2026-05-07 15:46 45.46158 8.91940 7600 ft 236 kts 169°
2026-05-07 15:46 45.44535 8.92385 7173 ft 237 kts 169°
2026-05-07 15:47 45.42969 8.92812 6982 ft 223 kts 169°
2026-05-07 15:47 45.41464 8.93218 6581 ft 220 kts 169°
2026-05-07 15:47 45.39965 8.93621 6228 ft 219 kts 169°
2026-05-07 15:47 45.38463 8.93703 6040 ft 216 kts 190°
2026-05-07 15:48 45.37111 8.92814 5775 ft 216 kts 219°
2026-05-07 15:48 45.36247 8.91096 5535 ft 216 kts 248°
2026-05-07 15:48 45.36081 8.88997 5289 ft 216 kts 276°
2026-05-07 15:48 45.36290 8.86875 5046 ft 216 kts 277°
2026-05-07 15:49 45.36426 8.85472 4883 ft 216 kts 277°
2026-05-07 15:49 45.36636 8.83362 4631 ft 215 kts 279°
2026-05-07 15:49 45.37207 8.81472 4387 ft 202 kts 306°
2026-05-07 15:49 45.38268 8.80247 4139 ft 197 kts 334°
2026-05-07 15:50 45.39584 8.79770 4038 ft 196 kts 349°
2026-05-07 15:50 45.40921 8.79420 4031 ft 196 kts 349°
2026-05-07 15:50 45.42234 8.79066 4022 ft 188 kts 349°
2026-05-07 15:50 45.43509 8.78718 4013 ft 186 kts 349°
2026-05-07 15:51 45.44775 8.78372 3961 ft 185 kts 349°
2026-05-07 15:51 45.46032 8.78027 3775 ft 184 kts 349°
2026-05-07 15:51 45.47286 8.77682 3553 ft 183 kts 349°
2026-05-07 15:51 45.48537 8.77339 3318 ft 183 kts 349°
2026-05-07 15:52 45.49785 8.76996 3079 ft 181 kts 349°
2026-05-07 15:52 45.50980 8.76668 2843 ft 174 kts 349°
2026-05-07 15:52 45.52156 8.76345 2610 ft 171 kts 349°
2026-05-07 15:52 45.53317 8.76025 2392 ft 170 kts 349°
2026-05-07 15:53 45.54459 8.75711 2162 ft 163 kts 349°
2026-05-07 15:53 45.55563 8.75407 1948 ft 160 kts 349°
2026-05-07 15:53 45.56652 8.75107 1740 ft 159 kts 349°
2026-05-07 15:53 45.57735 8.74809 1522 ft 157 kts 349°
2026-05-07 15:54 45.58768 8.74524 1310 ft 147 kts 349°
2026-05-07 15:54 45.59753 8.74253 1111 ft 142 kts 349°
2026-05-07 15:54 45.60728 8.73985 928 ft 143 kts 348°
2026-05-07 15:54 45.61702 8.73714 774 ft 142 kts 349°
2026-05-07 15:55 45.62614 8.73459 742 ft 118 kts 349°
2026-05-07 15:55 45.63159 8.73311 738 ft 62 kts 349°
2026-05-07 15:55 45.63531 8.73207 742 ft 39 kts 348°
2026-05-07 15:55 45.63720 8.73070 742 ft 23 kts 319°
2026-05-07 15:56 45.63812 8.72917 741 ft 13 kts 304°
2026-05-07 15:56 45.63869 8.72799 741 ft 16 kts 304°
2026-05-07 15:56 45.63933 8.72665 741 ft 15 kts 304°
2026-05-07 15:56 45.63949 8.72516 741 ft 14 kts 260°
2026-05-07 15:57 45.63931 8.72371 741 ft 15 kts 259°
2026-05-07 15:57 45.63912 8.72214 741 ft 17 kts 266°
2026-05-07 15:57 45.63907 8.72027 739 ft 20 kts 268°
2026-05-07 15:57 45.63882 8.71865 741 ft 16 kts 234°
2026-05-07 15:58 45.63773 8.71833 741 ft 18 kts 170°
2026-05-07 15:58 45.63647 8.71865 739 ft 17 kts 169°
2026-05-07 15:58 45.63526 8.71899 741 ft 19 kts 169°
2026-05-07 15:58 45.63392 8.71937 741 ft 20 kts 169°
2026-05-07 15:59 45.63249 8.71977 741 ft 22 kts 169°
2026-05-07 15:59 45.63092 8.72021 740 ft 24 kts 169°
2026-05-07 15:59 45.62927 8.72066 741 ft 23 kts 169°
2026-05-07 15:59 45.62791 8.72103 741 ft 20 kts 169°
2026-05-07 16:00 45.62687 8.72079 741 ft 16 kts 239°
2026-05-07 16:00 45.62664 8.71944 741 ft 14 kts 259°
2026-05-07 16:00 45.62646 8.71802 741 ft 14 kts 259°
2026-05-07 16:00 45.62629 8.71677 741 ft 14 kts 259°
2026-05-07 16:01 45.62608 8.71586 741 ft 7 kts 213°
2026-05-07 16:01 45.62569 8.71597 741 ft 3 kts 166°
2026-05-07 16:01 45.62549 8.71603 741 ft 2 kts 169°
2026-05-07 16:01 45.62547 8.71604 741 ft 0 kts 169°